| time (UTC) | temp F | wind direction | speed knots | gust knots | rain 1hr in | rain 24hr in | rain mn in | humidity % | barometer mb |
| 20260506224041 | 51 | 143 | 0.0 | 0.0 | 0.00 | 0.04 | 0.01 | 85 | 1005.3 |
| 20260506223035 | 51 | 143 | 0.0 | 0.9 | 0.00 | 0.04 | 0.01 | 85 | 1005.5 |
| 20260506222032 | 51 | 143 | 0.0 | 3.5 | 0.00 | 0.04 | 0.01 | 85 | 1005.3 |
| 20260506221043 | 51 | 143 | 1.7 | 5.2 | 0.00 | 0.04 | 0.01 | 84 | 1004.8 |
| 20260506220041 | 52 | 143 | 1.7 | 4.3 | 0.00 | 0.04 | 0.01 | 84 | 1004.3 |
| 20260506215040 | 52 | 143 | 1.7 | 7.8 | 0.00 | 0.04 | 0.01 | 85 | 1004.2 |
| 20260506214028 | 53 | 143 | 4.3 | 7.0 | 0.00 | 0.04 | 0.01 | 84 | 1004.0 |
| 20260506213030 | 54 | 143 | 0.0 | 4.3 | 0.00 | 0.04 | 0.01 | 86 | 1004.2 |
| 20260506212027 | 54 | 143 | 0.9 | 5.2 | 0.00 | 0.04 | 0.01 | 86 | 1004.0 |
| 20260506211033 | 55 | 143 | 2.6 | 4.3 | 0.00 | 0.04 | 0.01 | 85 | 1004.0 |
| 20260506210032 | 56 | 143 | 0.0 | 1.7 | 0.00 | 0.04 | 0.01 | 86 | 1003.9 |
| 20260506205032 | 56 | 143 | 0.0 | 2.6 | 0.00 | 0.04 | 0.01 | 85 | 1003.7 |
| 20260506204043 | 56 | 143 | 0.9 | 4.3 | 0.00 | 0.04 | 0.01 | 84 | 1003.8 |
| 20260506203040 | 57 | 143 | 0.9 | 6.1 | 0.00 | 0.04 | 0.01 | 84 | 1003.8 |
| 20260506202039 | 58 | 143 | 2.6 | 6.1 | 0.00 | 0.04 | 0.01 | 83 | 1003.9 |
| 20260506201026 | 59 | 143 | 2.6 | 3.5 | 0.00 | 0.04 | 0.01 | 83 | 1003.8 |
| 20260506200024 | 59 | 143 | 0.0 | 2.6 | 0.00 | 0.04 | 0.01 | 81 | 1003.8 |
| 20260506195028 | 60 | 143 | 0.9 | 8.7 | 0.00 | 0.04 | 0.01 | 80 | 1003.7 |
| 20260506194036 | 60 | 143 | 0.0 | 1.7 | 0.00 | 0.04 | 0.01 | 79 | 1003.7 |
| 20260506193034 | 60 | 143 | 0.0 | 0.9 | 0.00 | 0.04 | 0.01 | 78 | 1003.5 |
| 20260506192032 | 61 | 143 | 0.0 | 0.9 | 0.00 | 0.04 | 0.01 | 77 | 1003.4 |
| 20260506191024 | 62 | 143 | 0.0 | 0.9 | 0.00 | 0.04 | 0.01 | 75 | 1003.4 |
| 20260506190043 | 63 | 143 | 0.0 | 0.9 | 0.00 | 0.04 | 0.01 | 74 | 1003.3 |
| 20260506185041 | 63 | 143 | 0.0 | 1.7 | 0.00 | 0.04 | 0.01 | 73 | 1003.2 |
| 20260506184026 | 64 | 143 | 0.9 | 1.7 | 0.00 | 0.04 | 0.01 | 71 | 1003.2 |
| 20260506183043 | 65 | 143 | 0.0 | 1.7 | 0.00 | 0.04 | 0.01 | 69 | 1002.9 |
| 20260506181121 | 68 | 143 | 1.7 | 4.3 | 0.00 | 0.04 | 0.01 | 64 | 1002.7 |
| 20260506180027 | 69 | 143 | 1.7 | 4.3 | 0.00 | 0.04 | 0.01 | 62 | 1002.6 |
| 20260506175026 | 69 | 143 | 2.6 | 7.0 | 0.00 | 0.04 | 0.01 | 60 | 1002.6 |
| 20260506174035 | 69 | 143 | 0.9 | 2.6 | 0.00 | 0.04 | 0.01 | 60 | 1002.5 |
| 20260506173034 | 69 | 143 | 0.9 | 3.5 | 0.00 | 0.04 | 0.01 | 60 | 1002.4 |
| 20260506172038 | 70 | 143 | 0.9 | 8.7 | 0.00 | 0.04 | 0.01 | 59 | 1002.5 |
| 20260506171027 | 70 | 143 | 1.7 | 7.8 | 0.00 | 0.04 | 0.01 | 59 | 1002.4 |
| 20260506170042 | 70 | 143 | 0.9 | 3.5 | 0.00 | 0.04 | 0.01 | 58 | 1002.3 |
| 20260506165038 | 70 | 143 | 0.9 | 4.3 | 0.00 | 0.04 | 0.01 | 59 | 1002.4 |
| 20260506164028 | 70 | 143 | 0.9 | 4.3 | 0.00 | 0.04 | 0.01 | 59 | 1002.3 |
| 20260506163026 | 69 | 143 | 0.9 | 2.6 | 0.00 | 0.04 | 0.01 | 60 | 1002.3 |
| 20260506162041 | 69 | 143 | 1.7 | 5.2 | 0.00 | 0.04 | 0.01 | 60 | 1002.4 |
| 20260506161027 | 70 | 143 | 2.6 | 4.3 | 0.00 | 0.04 | 0.01 | 59 | 1002.4 |
| 20260506160024 | 69 | 143 | 1.7 | 6.1 | 0.00 | 0.04 | 0.01 | 59 | 1002.4 |
| 20260506155025 | 69 | 143 | 0.9 | 4.3 | 0.00 | 0.04 | 0.01 | 60 | 1002.5 |
| 20260506154033 | 69 | 143 | 1.7 | 3.5 | 0.00 | 0.04 | 0.01 | 60 | 1002.6 |
| 20260506153033 | 69 | 143 | 1.7 | 4.3 | 0.00 | 0.04 | 0.01 | 60 | 1002.6 |
| 20260506152031 | 69 | 143 | 2.6 | 7.0 | 0.00 | 0.04 | 0.01 | 59 | 1002.8 |
| 20260506151038 | 69 | 143 | 1.7 | 5.2 | 0.00 | 0.04 | 0.01 | 59 | 1002.9 |
| 20260506150039 | 69 | 143 | 1.7 | 7.0 | 0.00 | 0.04 | 0.01 | 59 | 1002.8 |
| 20260506145037 | 69 | 143 | 1.7 | 4.3 | 0.00 | 0.04 | 0.01 | 60 | 1002.8 |
| 20260506144043 | 69 | 143 | 0.9 | 5.2 | 0.00 | 0.04 | 0.01 | 60 | 1003.0 |
| 20260506143043 | 69 | 143 | 0.9 | 4.3 | 0.00 | 0.04 | 0.01 | 60 | 1003.0 |
| 20260506142025 | 68 | 143 | 1.7 | 6.1 | 0.00 | 0.04 | 0.01 | 60 | 1003.1 |
| 20260506141034 | 68 | 143 | 2.6 | 6.1 | 0.00 | 0.04 | 0.01 | 60 | 1003.2 |
| 20260506140031 | 69 | 143 | 3.5 | 7.0 | 0.00 | 0.04 | 0.01 | 59 | 1003.1 |
| 20260506135026 | 69 | 143 | 3.5 | 8.7 | 0.00 | 0.04 | 0.01 | 59 | 1003.1 |
| 20260506134027 | 69 | 143 | 3.5 | 10.4 | 0.00 | 0.04 | 0.01 | 57 | 1003.0 |
| 20260506132037 | 70 | 143 | 3.5 | 13.0 | 0.04 | 0.04 | 0.01 | 55 | 1002.8 |
| 20260506131043 | 70 | 144 | 3.5 | 9.6 | 0.04 | 0.12 | 0.01 | 57 | 1002.8 |
| 20260506125042 | 70 | 144 | 5.2 | 13.9 | 0.04 | 0.12 | 0.01 | 55 | 1002.8 |
| 20260506124031 | 69 | 143 | 5.2 | 15.6 | 0.04 | 0.12 | 0.01 | 58 | 1002.9 |
| 20260506123029 | 68 | 144 | 2.6 | 10.4 | 0.00 | 0.08 | 0.00 | 60 | 1002.9 |
| 20260506122028 | 68 | 144 | 5.2 | 12.2 | 0.00 | 0.08 | 0.00 | 60 | 1002.6 |
| 20260506121033 | 68 | 143 | 5.2 | 9.6 | 0.00 | 0.08 | 0.00 | 59 | 1002.5 |
| 20260506120030 | 69 | 143 | 4.3 | 12.2 | 0.00 | 0.08 | 0.00 | 58 | 1002.5 |
| 20260506115029 | 69 | 143 | 5.2 | 9.6 | 0.00 | 0.08 | 0.00 | 59 | 1002.4 |
| 20260506114036 | 69 | 144 | 4.3 | 8.7 | 0.00 | 0.08 | 0.00 | 59 | 1002.3 |
| 20260506113033 | 70 | 144 | 4.3 | 13.0 | 0.00 | 0.08 | 0.00 | 58 | 1002.3 |
| 20260506112033 | 70 | 144 | 3.5 | 11.3 | 0.00 | 0.08 | 0.00 | 59 | 1002.0 |
| 20260506111040 | 69 | 144 | 4.3 | 7.8 | 0.00 | 0.08 | 0.00 | 58 | 1002.0 |
| 20260506110040 | 68 | 143 | 2.6 | 11.3 | 0.00 | 0.08 | 0.00 | 60 | 1002.0 |
| 20260506105038 | 69 | 146 | 4.3 | 12.2 | 0.00 | 0.08 | 0.00 | 60 | 1001.9 |
| 20260506104028 | 69 | 144 | 4.3 | 8.7 | 0.00 | 0.08 | 0.00 | 60 | 1002.0 |
| 20260506103027 | 68 | 145 | 4.3 | 7.0 | 0.00 | 0.08 | 0.00 | 59 | 1001.9 |
| 20260506102028 | 69 | 145 | 1.7 | 7.0 | 0.00 | 0.08 | 0.00 | 61 | 1001.8 |
| 20260506101034 | 68 | 145 | 1.7 | 6.1 | 0.00 | 0.08 | 0.00 | 62 | 1001.8 |
| 20260506100114 | 68 | 145 | 2.6 | 6.1 | 0.00 | 0.08 | 0.00 | 61 | 1001.8 |
| 20260506095027 | 68 | 145 | 1.7 | 5.2 | 0.00 | 0.08 | 0.00 | 62 | 1001.7 |
| 20260506094035 | 67 | 145 | 2.6 | 7.8 | 0.00 | 0.08 | 0.00 | 63 | 1001.7 |
| 20260506093033 | 67 | 145 | 3.5 | 8.7 | 0.00 | 0.08 | 0.00 | 63 | 1001.6 |
| 20260506092035 | 66 | 145 | 1.7 | 7.8 | 0.00 | 0.08 | 0.00 | 65 | 1001.7 |
| 20260506091043 | 65 | 144 | 0.9 | 5.2 | 0.00 | 0.08 | 0.00 | 65 | 1001.7 |
| 20260506090042 | 65 | 144 | 2.6 | 7.0 | 0.00 | 0.08 | 0.00 | 66 | 1001.7 |
| 20260506085038 | 64 | 144 | 3.5 | 8.7 | 0.00 | 0.08 | 0.00 | 66 | 1001.7 |
| 20260506084028 | 64 | 144 | 1.7 | 10.4 | 0.00 | 0.08 | 0.00 | 65 | 1001.7 |
| 20260506082036 | 64 | 146 | 3.5 | 10.4 | 0.00 | 0.08 | 0.00 | 64 | 1001.9 |
| 20260506081043 | 65 | 144 | 4.3 | 7.0 | 0.00 | 0.08 | 0.00 | 63 | 1001.6 |
| 20260506073025 | 61 | 143 | 0.9 | 6.1 | 0.00 | 0.08 | 0.00 | 69 | 1001.5 |
| 20260506072043 | 60 | 143 | 4.3 | 7.8 | 0.00 | 0.08 | 0.00 | 70 | 1001.4 |
| 20260506071030 | 59 | 143 | 1.7 | 6.1 | 0.00 | 0.08 | 0.00 | 71 | 1001.5 |
| 20260506062037 | 57 | 143 | 1.7 | 6.1 | 0.00 | 0.08 | 0.00 | 76 | 1002.1 |
| 20260506061028 | 57 | 143 | 2.6 | 6.1 | 0.00 | 0.08 | 0.00 | 75 | 1002.2 |
| 20260506051032 | 54 | 143 | 0.9 | 2.6 | 0.00 | 0.08 | 0.00 | 80 | 1002.8 |
| 20260506045025 | 53 | 143 | 0.0 | 4.3 | 0.00 | 0.08 | 0.00 | 82 | 1002.7 |
| 20260506044032 | 52 | 143 | 0.9 | 5.2 | 0.00 | 0.08 | 0.00 | 83 | 1002.9 |
| 20260506043035 | 52 | 143 | 1.7 | 4.3 | 0.00 | 0.08 | 0.00 | 84 | 1002.8 |
| 20260506042035 | 52 | 143 | 0.9 | 4.3 | 0.00 | 0.08 | 0.00 | 84 | 1002.8 |
| 20260506041040 | 52 | 143 | 0.0 | 3.5 | 0.00 | 0.08 | 0.02 | 85 | 1003.2 |
| 20260506040038 | 51 | 143 | 0.9 | 2.6 | 0.00 | 0.08 | 0.02 | 86 | 1003.2 |
| 20260506035040 | 51 | 143 | 0.9 | 3.5 | 0.00 | 0.08 | 0.02 | 87 | 1003.2 |
| 20260506034025 | 51 | 143 | 0.9 | 2.6 | 0.00 | 0.08 | 0.02 | 87 | 1003.3 |
| 20260506033025 | 50 | 143 | 0.9 | 2.6 | 0.00 | 0.08 | 0.02 | 87 | 1003.3 |
| 20260506032042 | 50 | 143 | 0.9 | 2.6 | 0.00 | 0.08 | 0.02 | 88 | 1003.4 |
| 20260506031029 | 50 | 143 | 0.9 | 2.6 | 0.00 | 0.08 | 0.02 | 88 | 1003.6 |
| 20260506030026 | 50 | 143 | 0.0 | 1.7 | 0.00 | 0.08 | 0.02 | 88 | 1003.6 |
| 20260506025026 | 50 | 143 | 0.9 | 1.7 | 0.00 | 0.08 | 0.02 | 89 | 1003.7 |
| 20260506024031 | 50 | 143 | 0.9 | 2.6 | 0.00 | 0.08 | 0.02 | 89 | 1003.7 |
| 20260506023044 | 50 | 143 | 0.9 | 2.6 | 0.00 | 0.08 | 0.02 | 89 | 1003.7 |
| 20260506022040 | 50 | 143 | 0.0 | 0.9 | 0.00 | 0.08 | 0.02 | 89 | 1003.9 |
| 20260506021030 | 50 | 143 | 0.0 | 1.7 | 0.00 | 0.08 | 0.02 | 89 | 1004.0 |
| 20260506020025 | 50 | 143 | 0.9 | 1.7 | 0.00 | 0.08 | 0.02 | 89 | 1004.1 |
| 20260506015039 | 51 | 143 | 0.9 | 1.7 | 0.00 | 0.08 | 0.02 | 88 | 1004.3 |
| 20260506014026 | 51 | 143 | 0.9 | 1.7 | 0.00 | 0.08 | 0.02 | 88 | 1004.3 |
| 20260506013025 | 51 | 143 | 0.0 | 0.9 | 0.00 | 0.08 | 0.02 | 87 | 1004.4 |
| 20260506012026 | 51 | 143 | 0.0 | 0.9 | 0.00 | 0.08 | 0.02 | 87 | 1004.5 |
| 20260506011032 | 52 | 143 | 0.0 | 2.6 | 0.00 | 0.08 | 0.02 | 87 | 1004.6 |
| 20260506005042 | 52 | 143 | 0.0 | 0.9 | 0.00 | 0.08 | 0.02 | 85 | 1004.5 |
| 20260506004029 | 52 | 143 | 0.9 | 3.5 | 0.00 | 0.08 | 0.02 | 85 | 1004.5 |
| 20260506003026 | 53 | 143 | 0.0 | 0.9 | 0.00 | 0.08 | 0.02 | 84 | 1004.4 |
| 20260506002024 | 53 | 143 | 0.0 | 0.9 | 0.00 | 0.08 | 0.02 | 84 | 1004.5 |
| 20260506001025 | 53 | 143 | 0.0 | 0.9 | 0.00 | 0.08 | 0.02 | 84 | 1004.5 |
| 20260506000024 | 53 | 143 | 0.0 | 0.9 | 0.00 | 0.08 | 0.02 | 84 | 1004.5 |
| 20260505235040 | 53 | 143 | 0.0 | 0.9 | 0.00 | 0.08 | 0.02 | 84 | 1004.5 |
| 20260505234033 | 53 | 143 | 0.0 | 0.9 | 0.00 | 0.08 | 0.02 | 83 | 1004.5 |
| 20260505233030 | 53 | 143 | 0.0 | 0.9 | 0.00 | 0.08 | 0.02 | 83 | 1004.6 |
| 20260505232031 | 53 | 143 | 0.0 | 0.9 | 0.00 | 0.08 | 0.02 | 82 | 1004.6 |
| 20260505231036 | 53 | 143 | 0.0 | 0.9 | 0.00 | 0.08 | 0.02 | 82 | 1004.6 |
| 20260505230033 | 53 | 143 | 0.0 | 0.9 | 0.00 | 0.08 | 0.02 | 81 | 1004.7 |
| 20260505225036 | 53 | 143 | 0.0 | 0.9 | 0.00 | 0.08 | 0.02 | 81 | 1004.6 |